Location: Newark
(33.6439°N, 114.9881°W)
Time: 21:34:29
(UTC+00:00)

Tiros 1 - Pass Details

Date: 29 July 2019
Orbit: 630 x 664 km, 48.4° (Epoch: 18 August)

Event Time Altitude Azimuth Distance (km) Brightness Sun altitude
Rises 17:22:38 0° 265° (W) 2,964 10.2 54.7°
Reaches altitude 10° 17:25:17 10° 277° (W) 2,060 9.5 55.2°
Maximum altitude 17:29:18 27° 335° (NNW) 1,276 8.8 56.0°
Drops below altitude 10° 17:33:22 10° 33° (NNE) 2,078 10.0 56.8°
Sets 17:36:03 0° 46° (NE) 2,995 10.8 57.3°
